[[{"header":{"parameterUnit":"m.s-1","parameterCategory":1,"la1":30.2991,"la2":30.254,"lo1":-89.0895,"lo2":-89.0444,"dy":0.0017,"dx":0.0017,"nx":28,"ny":28,"refTime":"2023-10-07T21:00:00:Z","depth":0,"parameterNumber":2,"parameterNumberName":"U-component_of_WINDS"},"data":[0,0,0,0,0,0,0,0,0,0,0,0,0,0,0,0,0,0,0,0,0,0,0,0,0,0,0,0,0,0,0,0,0,0,0,0,0,0,0,0,0,0,0,0,0,0,0,0,0,0,0,0,0,0,0,0,0,0,-0.6562,-0.6564,0,-0.6701,-0.6703,-0.6705,-0.6792,-0.6793,-0.6793,-0.6794,-0.6932,-0.6935,-0.6939,0,0,0,0,0,0,0,0,0,0,0,0,0,-0.6367,-0.6371,-0.6562,-0.6564,-0.6566,-0.6701,-0.6703,-0.6705,-0.6792,-0.6793,-0.6794,-0.6794,-0.6931,-0.6935,-0.6939,0,0,0,0,0,0,0,0,0,0,0,0,0,-0.6474,-0.6372,-0.6562,-0.6626,-0.6633,-0.6701,-0.6703,-0.6706,-0.6792,-0.6793,-0.6794,-0.6795,-0.693,-0.6935,-0.6939,-0.6954,0,0,-0.6954,-0.6956,0,0,0,0,0,0,0,0,-0.6467,-0.6481,-0.6615,-0.6621,-0.663,-0.6731,-0.6685,-0.6789,-0.6792,-0.6732,-0.6794,-0.6795,-0.6864,-0.6874,-0.6899,-0.696,-0.6966,-0.6954,-0.6957,-0.6959,-0.6961,0,0,0,0,0,0,0,-0.646,-0.6475,-0.6617,-0.6616,-0.6625,-0.6646,-0.6662,-0.6705,-0.6792,-0.6737,-0.6744,-0.6759,-0.6868,-0.6894,-0.6903,-0.6968,-0.6954,-0.6959,-0.6962,-0.6963,-0.7046,-0.7046,0,0,0,0,0,0,-0.6443,-0.6468,-0.6613,-0.6621,-0.6549,-0.6649,-0.6667,-0.6697,-0.6792,-0.6807,-0.6758,-0.6763,-0.6885,-0.6897,-0.6908,-0.693,-0.6959,-0.6964,-0.6967,-0.7047,-0.7046,-0.7046,0,0,0,0,0,0,-0.6439,-0.6455,-0.6607,-0.6547,-0.6568,-0.6651,-0.6685,-0.67,-0.6725,-0.6808,-0.6823,-0.6769,-0.6886,-0.6901,-0.6942,-0.6936,-0.6966,-0.697,-0.7048,-0.7047,-0.7046,-0.6974,0,0,0,0,0,0,-0.6433,-0.6453,-0.646,-0.6546,-0.6571,-0.664,-0.6685,-0.6702,-0.6734,-0.6741,-0.6822,-0.6836,-0.6888,-0.6934,-0.6946,-0.6943,-0.6974,-0.7049,-0.7047,-0.7046,-0.6977,-0.6971,-0.6965,0,0,0,0,0,-0.6425,-0.6434,-0.646,-0.6477,-0.6582,-0.6639,-0.6653,-0.6714,-0.6733,-0.674,-0.6793,-0.6833,-0.6935,-0.6937,-0.6952,-0.695,-0.7049,-0.7048,-0.7046,-0.698,-0.6972,-0.6965,0,0,0,0,0,0,-0.6344,-0.6446,-0.6477,-0.6514,-0.6567,-0.6654,-0.6665,-0.6704,-0.6752,-0.6757,-0.6829,-0.6847,-0.6879,-0.6919,-0.692,-0.6968,-0.6997,-0.6998,-0.6941,-0.6934,-0.6928,-0.6917,-0.6978,0,0,0,0,0,-0.6331,-0.637,-0.6457,-0.6481,-0.6506,-0.6581,-0.6608,-0.6651,-0.6709,-0.6731,-0.6787,-0.684,-0.6884,-0.6912,-0.6957,-0.6984,-0.7002,-0.6989,-0.6983,-0.6978,-0.6978,-0.6994,-0.6989,-0.7041,-0.7041,-0.7041,0,0,-0.6303,-0.6364,-0.6384,-0.6466,-0.6513,-0.655,-0.6599,-0.6637,-0.6665,-0.6737,-0.6778,-0.6821,-0.6885,-0.6919,-0.6936,-0.6952,-0.6968,-0.6976,-0.6971,-0.6974,-0.6992,-0.6987,-0.6982,-0.704,-0.704,-0.704,0,0,-0.6271,-0.6322,-0.6347,-0.6393,-0.6463,-0.6512,-0.6518,-0.6599,-0.663,-0.6674,-0.6728,-0.6761,-0.6836,-0.6879,-0.6911,-0.6894,-0.6932,-0.6907,-0.6875,-0.6889,-0.6885,-0.6882,-0.6875,-0.6872,-0.6907,-0.6907,-0.6906,0,-0.6227,-0.6288,-0.6355,-0.639,-0.6423,-0.6491,-0.6516,-0.6556,-0.6637,-0.6658,-0.6675,-0.677,-0.6818,-0.6862,-0.6858,-0.6881,-0.6889,-0.6898,-0.6881,-0.6878,-0.6876,-0.687,-0.6867,-0.6903,-0.6903,-0.6904,-0.6904,0,-0.623,-0.627,-0.6282,-0.6359,-0.6395,-0.6424,-0.6494,-0.6521,-0.6561,-0.6607,-0.665,-0.671,-0.6768,-0.6781,-0.682,-0.683,-0.6838,-0.6867,-0.6897,-0.6866,-0.6862,-0.686,-0.6898,-0.6899,-0.69,-0.6901,0,0,-0.6151,-0.6264,-0.6267,-0.6303,-0.6385,-0.6417,-0.6449,-0.6506,-0.6528,-0.6581,-0.6608,-0.6669,-0.6697,-0.6732,-0.6776,-0.6789,-0.6771,-0.6817,-0.6819,-0.6805,-0.6784,-0.6761,-0.6758,-0.6797,-0.6797,-0.6797,-0.6779,0,-0.613,-0.6193,-0.6253,-0.6293,-0.6331,-0.6395,-0.6423,-0.6475,-0.6519,-0.6556,-0.6605,-0.6647,-0.6681,-0.6702,-0.6718,-0.6769,-0.6767,-0.6772,-0.6821,-0.6822,-0.6802,-0.6756,-0.6732,-0.6712,-0.6777,-0.6777,-0.6777,0,-0.6115,-0.6166,-0.621,-0.6287,-0.6305,-0.6329,-0.6387,-0.6422,-0.6482,-0.6513,-0.6553,-0.6599,-0.6634,-0.6661,-0.6709,-0.6711,-0.6734,-0.6763,-0.6763,-0.6769,-0.6797,-0.6759,-0.6707,-0.6703,-0.6775,-0.6775,-0.6775,0,-0.6051,-0.6131,-0.6167,-0.6196,-0.6287,-0.6302,-0.6341,-0.6402,-0.6432,-0.6482,-0.6502,-0.6554,-0.6583,-0.6622,-0.668,-0.6694,-0.6722,-0.6753,-0.6747,-0.6745,-0.6749,-0.6748,-0.6699,-0.6766,-0.6766,-0.6766,-0.6766,0,-0.6022,-0.6046,-0.614,-0.6162,-0.619,-0.6259,-0.6284,-0.6328,-0.6382,-0.6412,-0.6471,-0.6498,-0.6575,-0.661,-0.6656,-0.6688,-0.6701,-0.6726,-0.6738,-0.672,-0.6717,-0.6736,-0.6738,-0.6766,-0.6766,-0.6766,-0.6766,0,-0.5955,-0.6019,-0.6063,-0.6146,-0.6168,-0.6184,-0.6255,-0.6278,-0.6326,-0.6364,-0.6377,-0.6451,-0.6496,-0.6559,-0.6623,-0.6654,-0.6679,-0.6698,-0.6659,-0.6666,-0.6655,-0.6655,-0.6616,-0.6614,-0.6683,-0.6682,-0.6681,0,-0.5931,-0.5952,-0.6037,-0.6062,-0.6099,-0.6139,-0.6171,-0.6239,-0.6269,-0.6339,-0.6353,-0.6402,-0.6446,-0.6514,-0.6573,-0.6622,-0.6642,-0.6625,-0.665,-0.6631,-0.6641,-0.6638,-0.664,-0.6619,-0.6618,-0.6617,-0.6616,0,-0.5882,-0.5913,-0.5957,-0.6012,-0.6048,-0.6094,-0.6143,-0.616,-0.6238,-0.6268,-0.6316,-0.6349,-0.6415,-0.6463,-0.652,-0.6558,-0.6599,-0.6608,-0.6609,-0.6591,-0.6567,-0.6578,-0.6641,-0.6608,-0.6609,-0.661,-0.661,-0.6611,-0.5836,-0.5856,-0.5919,-0.5966,-0.601,-0.6054,-0.6079,-0.613,-0.6172,-0.6231,-0.6269,-0.6314,-0.6372,-0.6453,-0.6489,-0.6524,-0.6541,-0.6543,-0.6543,-0.6542,-0.6535,-0.6562,-0.6535,-0.6535,-0.6535,-0.6536,-0.6536,0,-0.5788,-0.5832,-0.5875,-0.5941,-0.5977,-0.6015,-0.607,-0.6097,-0.6137,-0.6189,-0.623,-0.6284,-0.633,-0.6393,-0.6444,-0.646,-0.648,-0.6471,-0.6469,-0.6477,-0.6518,-0.6511,-0.6453,-0.6453,-0.6453,-0.6453,-0.6454,-0.6454,-0.5768,-0.5804,-0.5842,-0.5899,-0.5943,-0.5989,-0.6017,-0.6057,-0.6099,-0.6156,-0.6196,-0.6237,-0.6292,-0.6347,-0.6391,-0.6409,-0.6424,-0.6408,-0.6431,-0.6467,-0.6475,-0.6482,-0.6476,-0.6411,-0.6411,-0.6387,-0.6387,-0.6387]},{"header":{"parameterUnit":"m.s-1","parameterCategory":1,"la1":30.2991,"la2":30.254,"lo1":-89.0895,"lo2":-89.0444,"dy":0.0017,"dx":0.0017,"nx":28,"ny":28,"refTime":"2023-10-07T21:00:00:Z","depth":0,"parameterNumber":3,"parameterNumberName":"V-component_of_WINDS"},"data":[0,0,0,0,0,0,0,0,0,0,0,0,0,0,0,0,0,0,0,0,0,0,0,0,0,0,0,0,0,0,0,0,0,0,0,0,0,0,0,0,0,0,0,0,0,0,0,0,0,0,0,0,0,0,0,0,0,0,-2.1876,-2.1877,0,-2.1996,-2.1997,-2.1999,-2.1993,-2.1991,-2.1989,-2.1988,-2.2111,-2.2116,-2.2121,0,0,0,0,0,0,0,0,0,0,0,0,0,-2.1642,-2.1646,-2.1876,-2.1877,-2.1879,-2.1996,-2.1997,-2.1999,-2.1993,-2.1991,-2.1989,-2.1987,-2.211,-2.2116,-2.2121,0,0,0,0,0,0,0,0,0,0,0,0,0,-2.1751,-2.1648,-2.1876,-2.189,-2.1892,-2.1995,-2.1997,-2.1999,-2.1993,-2.1991,-2.1988,-2.1986,-2.2108,-2.2115,-2.2122,-2.2219,0,0,-2.2145,-2.2148,0,0,0,0,0,0,0,0,-2.1745,-2.176,-2.1886,-2.1889,-2.1892,-2.1977,-2.196,-2.2073,-2.1994,-2.1955,-2.1988,-2.1985,-2.2069,-2.2079,-2.2107,-2.2225,-2.223,-2.2145,-2.215,-2.2153,-2.2155,0,0,0,0,0,0,0,-2.1737,-2.1754,-2.1923,-2.1888,-2.1892,-2.1891,-2.1903,-2.1982,-2.2025,-2.1958,-2.1958,-2.1972,-2.207,-2.21,-2.211,-2.2232,-2.2145,-2.2152,-2.2156,-2.2159,-2.2435,-2.2438,0,0,0,0,0,0,-2.1727,-2.1748,-2.192,-2.1927,-2.1811,-2.1897,-2.1911,-2.1952,-2.2024,-2.2033,-2.1974,-2.1972,-2.2089,-2.2102,-2.2115,-2.2233,-2.2153,-2.216,-2.2164,-2.2432,-2.2436,-2.2439,0,0,0,0,0,0,-2.1722,-2.1742,-2.1915,-2.1838,-2.186,-2.1904,-2.195,-2.1956,-2.1986,-2.2036,-2.2044,-2.1998,-2.2087,-2.2104,-2.2193,-2.2237,-2.2163,-2.217,-2.2429,-2.2433,-2.2437,-2.247,0,0,0,0,0,0,-2.1715,-2.174,-2.1777,-2.1839,-2.1864,-2.1991,-2.1953,-2.196,-2.1999,-2.1996,-2.206,-2.2068,-2.2087,-2.2182,-2.22,-2.2246,-2.2175,-2.2425,-2.2431,-2.2436,-2.2465,-2.2475,-2.2483,0,0,0,0,0,-2.1707,-2.1782,-2.1779,-2.18,-2.1911,-2.1994,-2.2008,-2.2028,-2.2002,-2.204,-2.2072,-2.2066,-2.2229,-2.2191,-2.2212,-2.226,-2.2422,-2.2429,-2.2435,-2.2461,-2.2473,-2.2483,0,0,0,0,0,0,-2.1725,-2.179,-2.1788,-2.1885,-2.1934,-2.1993,-2.2041,-2.204,-2.2097,-2.2092,-2.2114,-2.2129,-2.2218,-2.2248,-2.2205,-2.2357,-2.2322,-2.2333,-2.2335,-2.2347,-2.2355,-2.2347,-2.2182,0,0,0,0,0,-2.174,-2.1802,-2.1856,-2.1936,-2.1961,-2.1997,-2.2034,-2.2044,-2.2096,-2.2117,-2.2155,-2.2205,-2.2268,-2.2309,-2.2369,-2.2469,-2.2483,-2.2512,-2.2521,-2.2528,-2.2538,-2.2593,-2.2607,-2.246,-2.246,-2.246,0,0,-2.1773,-2.1816,-2.1854,-2.1941,-2.198,-2.2044,-2.2014,-2.2083,-2.213,-2.2127,-2.2213,-2.2243,-2.2301,-2.2396,-2.244,-2.2423,-2.2581,-2.2537,-2.2542,-2.2548,-2.2601,-2.2615,-2.2627,-2.2465,-2.2464,-2.2463,0,0,-2.1865,-2.1904,-2.1975,-2.2015,-2.2074,-2.2097,-2.2114,-2.2173,-2.2193,-2.228,-2.2279,-2.2335,-2.2443,-2.2484,-2.2519,-2.2626,-2.2622,-2.2645,-2.2692,-2.2746,-2.2757,-2.2768,-2.2806,-2.282,-2.2654,-2.2654,-2.2654,0,-2.1898,-2.1993,-2.2012,-2.2081,-2.2119,-2.2119,-2.2192,-2.2229,-2.2306,-2.2332,-2.2313,-2.2447,-2.2486,-2.2591,-2.2617,-2.2645,-2.2666,-2.2638,-2.2754,-2.2765,-2.2775,-2.2812,-2.2826,-2.2656,-2.2656,-2.2656,-2.2656,0,-2.2031,-2.2097,-2.2148,-2.2221,-2.2265,-2.2336,-2.2365,-2.2408,-2.2414,-2.244,-2.2528,-2.2575,-2.2644,-2.267,-2.2677,-2.2776,-2.2764,-2.2749,-2.2714,-2.2791,-2.2826,-2.284,-2.266,-2.2659,-2.2658,-2.2658,0,0,-2.2139,-2.2221,-2.2239,-2.2272,-2.2337,-2.2389,-2.2459,-2.2527,-2.2563,-2.2615,-2.2675,-2.2766,-2.2753,-2.2792,-2.2804,-2.2851,-2.2933,-2.2831,-2.2833,-2.2849,-2.3045,-2.3056,-2.3072,-2.2931,-2.2934,-2.2936,-2.304,0,-2.2237,-2.2362,-2.2381,-2.249,-2.2552,-2.2552,-2.2613,-2.266,-2.2686,-2.2742,-2.277,-2.2834,-2.2811,-2.2835,-2.2881,-2.2913,-2.2973,-2.2906,-2.2988,-2.299,-2.2974,-2.309,-2.3102,-2.3198,-2.3054,-2.3056,-2.3058,0,-2.2369,-2.2425,-2.2541,-2.2597,-2.2624,-2.2678,-2.2742,-2.2795,-2.2848,-2.2864,-2.2908,-2.2914,-2.2987,-2.2949,-2.305,-2.3004,-2.3039,-2.3059,-2.3064,-2.3073,-2.3029,-2.3103,-2.3229,-2.3244,-2.308,-2.3078,-2.3076,0,-2.2437,-2.254,-2.2623,-2.2651,-2.2719,-2.2758,-2.2788,-2.2838,-2.2878,-2.2933,-2.2959,-2.3023,-2.3058,-2.3107,-2.313,-2.31,-2.3231,-2.3194,-2.3246,-2.3245,-2.3274,-2.3272,-2.3408,-2.3295,-2.3295,-2.3294,-2.3294,0,-2.2545,-2.2616,-2.2654,-2.2705,-2.2784,-2.2805,-2.2883,-2.2912,-2.2957,-2.3014,-2.3018,-2.3071,-2.3099,-2.3156,-2.3175,-2.3257,-2.3272,-2.3287,-2.3291,-2.3287,-2.3285,-2.331,-2.3304,-2.3298,-2.3297,-2.3297,-2.3296,0,-2.2634,-2.2662,-2.2752,-2.2809,-2.2825,-2.2881,-2.293,-2.2979,-2.3004,-2.3076,-2.3094,-2.3133,-2.3201,-2.3229,-2.3313,-2.3325,-2.3419,-2.3418,-2.3401,-2.3402,-2.3453,-2.3448,-2.361,-2.3633,-2.3504,-2.3505,-2.3506,0,-2.2702,-2.2756,-2.2819,-2.2857,-2.2888,-2.2949,-2.299,-2.3012,-2.3054,-2.3118,-2.316,-2.3228,-2.3283,-2.3392,-2.3428,-2.3492,-2.3493,-2.3545,-2.3502,-2.3496,-2.3494,-2.3491,-2.3497,-2.3553,-2.3555,-2.3556,-2.3556,0,-2.2819,-2.283,-2.2888,-2.295,-2.2998,-2.3049,-2.3098,-2.3129,-2.3159,-2.3206,-2.3275,-2.3318,-2.3403,-2.347,-2.3536,-2.3567,-2.3568,-2.3569,-2.3585,-2.3582,-2.357,-2.3577,-2.3423,-2.3566,-2.3565,-2.3564,-2.3564,-2.3563,-2.29,-2.2948,-2.3,-2.3064,-2.3103,-2.3149,-2.3198,-2.3229,-2.3287,-2.3358,-2.3367,-2.3441,-2.3493,-2.3581,-2.3615,-2.3674,-2.3661,-2.3683,-2.3689,-2.3694,-2.3698,-2.356,-2.3686,-2.3686,-2.3686,-2.3685,-2.3685,0,-2.3018,-2.3051,-2.3109,-2.3178,-2.3228,-2.3223,-2.3277,-2.332,-2.3385,-2.3433,-2.3487,-2.3567,-2.3632,-2.3673,-2.3739,-2.3778,-2.378,-2.3795,-2.3792,-2.38,-2.3705,-2.3686,-2.3792,-2.3792,-2.3792,-2.3792,-2.3792,-2.3792,-2.3085,-2.3167,-2.3184,-2.3286,-2.3318,-2.339,-2.3422,-2.3464,-2.3503,-2.3591,-2.3645,-2.3671,-2.3717,-2.3786,-2.3846,-2.3856,-2.388,-2.3897,-2.3906,-2.3817,-2.3806,-2.3796,-2.3777,-2.3901,-2.3902,-2.3996,-2.3997,-2.3997]}]]